Date String (YYYY-MM-DD hh:mm:ss) UTC,Instrument flags,absolute air pressure of the measurement (hPa),sample flow rate (lpm),inlet stack bypass flow (lpm),air temperature of the measurement (°C),ambient temperature measured by the external sensor (°C),aerosol sample conditioner tube jacket temperature (°C),OPC LED temperature (°C),internal box temperature (°C),relative humidity of the measurement (%),span deviation,mass concentration of particles derived from Lorenz-Mie calculation of OPC scattering (μg/m³),mass concentration of particles derived from Lorenz-Mie calculation of OPC scattering (μg/m³),mass concentration of particles derived from Lorenz-Mie calculation of OPC scattering (μg/m³)
DateTimeUTC,F1_M11,P_M11,Q1_M11,Q2_M11,T1_M11,T2_M11,T3_M11,T4_M11,T5_M11,U1_M11,ZSPAN_M11,X0_M11,X2_M11,X1_M11
2024-01-22 23:00:00,SystemResetWarning,0824.7,5.01,000.00,026.0,025.3,000.0,034.4,027.4,14.2,0004.1,0008.60,0005.31,0005.05
2024-01-22 23:01:00,SystemResetWarning,0824.7,5.01,000.00,026.0,025.3,000.0,034.4,027.4,14.2,0004.3,0008.50,0005.28,0005.04
2024-01-22 23:02:00,SystemResetWarning,0824.7,5.00,000.00,026.0,025.3,000.0,034.4,027.4,14.2,0004.3,0008.47,0005.24,0005.02
2024-01-22 23:03:00,SystemResetWarning,0824.8,5.00,000.00,026.0,025.3,000.0,034.4,027.4,14.2,0004.6,0008.41,0005.21,0004.99
2024-01-22 23:04:00,SystemResetWarning,0824.8,5.00,000.00,026.1,025.4,000.0,034.4,027.4,14.2,0004.7,0008.44,0005.18,0004.97
2024-01-22 23:05:00,SystemResetWarning,0824.8,5.01,000.00,026.1,025.4,000.0,034.4,027.4,14.2,0004.7,0008.57,0005.16,0004.95
2024-01-22 23:06:00,SystemResetWarning,0824.8,5.00,000.00,026.1,025.4,000.0,034.4,027.4,14.2,0004.7,0008.59,0005.15,0004.92
2024-01-22 23:07:00,SystemResetWarning,0824.8,4.99,000.00,026.1,025.4,000.0,034.4,027.5,14.2,0004.7,0008.60,0005.13,0004.90
2024-01-22 23:08:00,SystemResetWarning,0824.7,4.99,000.00,026.1,025.4,000.0,034.4,027.5,14.2,0004.8,0008.62,0005.11,0004.88
2024-01-22 23:09:00,SystemResetWarning,0824.8,5.00,000.00,026.1,025.4,000.0,034.4,027.5,14.2,0005.0,0008.62,0005.12,0004.87
2024-01-22 23:10:00,SystemResetWarning,0824.8,5.00,000.00,026.1,025.4,000.0,034.4,027.5,14.2,0005.3,0008.59,0005.12,0004.85
2024-01-22 23:11:00,SystemResetWarning,0824.7,5.00,000.00,026.1,025.4,000.0,034.4,027.5,14.2,0005.3,0008.60,0005.12,0004.83
2024-01-22 23:12:00,SystemResetWarning,0824.8,5.01,000.00,026.1,025.4,000.0,034.4,027.5,14.1,0005.2,0008.59,0005.09,0004.82
2024-01-22 23:13:00,SystemResetWarning,0824.8,5.00,000.00,026.1,025.4,000.0,034.4,027.5,14.1,0005.2,0008.46,0005.07,0004.79
2024-01-22 23:14:00,SystemResetWarning,0824.8,4.99,000.00,026.1,025.4,000.0,034.4,027.5,14.1,0004.9,0008.51,0005.06,0004.78
2024-01-22 23:15:00,SystemResetWarning,0824.9,4.99,000.00,026.1,025.4,000.0,034.4,027.5,14.1,0004.9,0008.44,0005.05,0004.76
2024-01-22 23:16:00,SystemResetWarning,0824.9,5.01,000.00,026.1,025.4,000.0,034.4,027.5,14.1,0004.7,0008.24,0005.02,0004.73
2024-01-22 23:17:00,SystemResetWarning,0824.9,5.00,000.00,026.1,025.4,000.0,034.4,027.5,14.0,0004.7,0008.26,0005.00,0004.71
2024-01-22 23:18:00,SystemResetWarning,0824.9,5.01,000.00,026.1,025.4,000.0,034.5,027.5,14.0,0004.8,0008.21,0004.98,0004.69
2024-01-22 23:19:00,SystemResetWarning,0824.9,5.00,000.00,026.1,025.4,000.0,034.5,027.5,14.0,0004.7,0008.13,0004.97,0004.68
2024-01-22 23:20:00,SystemResetWarning,0824.9,5.00,000.00,026.1,025.4,000.0,034.5,027.5,14.0,0004.5,0008.17,0004.97,0004.67
2024-01-22 23:21:00,SystemResetWarning,0825.0,5.01,000.00,026.1,025.4,000.0,034.5,027.5,14.0,0004.3,0008.13,0004.95,0004.65
2024-01-22 23:22:00,SystemResetWarning,0824.9,5.00,000.00,026.2,025.4,000.0,034.5,027.5,13.9,0004.1,0008.07,0004.92,0004.63
2024-01-22 23:23:00,SystemResetWarning,0824.8,4.99,000.00,026.1,025.4,000.0,034.5,027.5,13.9,0003.9,0008.02,0004.91,0004.62
2024-01-22 23:24:00,SystemResetWarning,0824.9,5.00,000.00,026.1,025.4,000.0,034.5,027.5,13.9,0003.7,0008.07,0004.93,0004.61
2024-01-22 23:25:00,SystemResetWarning,0824.9,5.00,000.00,026.2,025.4,000.0,034.5,027.5,13.9,0003.9,0008.28,0004.95,0004.62
2024-01-22 23:26:00,SystemResetWarning,0824.9,5.00,000.00,026.2,025.4,000.0,034.5,027.5,14.0,0003.7,0008.42,0004.94,0004.62
2024-01-22 23:27:00,SystemResetWarning,0824.9,5.00,000.00,026.2,025.4,000.0,034.5,027.6,14.0,0003.5,0009.06,0004.96,0004.62
2024-01-22 23:28:00,SystemResetWarning,0824.9,5.00,000.00,026.2,025.5,000.0,034.5,027.6,13.9,0003.5,0009.17,0004.98,0004.64
2024-01-22 23:29:00,SystemResetWarning,0824.9,5.00,000.00,026.2,025.5,000.0,034.5,027.6,13.9,0003.3,0009.32,0004.98,0004.65
2024-01-22 23:30:00,SystemResetWarning,0824.9,5.00,000.00,026.2,025.5,000.0,034.5,027.5,13.9,0003.2,0009.40,0005.00,0004.67
2024-01-22 23:31:00,SystemResetWarning,0824.9,5.00,000.00,026.2,025.5,000.0,034.5,027.6,13.8,0003.3,0009.76,0005.03,0004.68
2024-01-22 23:32:00,SystemResetWarning,0824.9,5.00,000.00,026.2,025.5,000.0,034.5,027.6,13.8,0003.4,0009.68,0005.01,0004.70
2024-01-22 23:33:00,SystemResetWarning,0824.9,5.00,000.00,026.2,025.5,000.0,034.5,027.6,13.7,0003.5,0009.68,0005.00,0004.70
2024-01-22 23:34:00,SystemResetWarning,0824.9,5.00,000.00,026.2,025.5,000.0,034.5,027.6,13.7,0003.7,0009.96,0005.03,0004.71
2024-01-22 23:35:00,SystemResetWarning,0824.9,5.00,000.00,026.2,025.5,000.0,034.5,027.6,13.7,0004.1,0011.06,0005.02,0004.71
2024-01-22 23:36:00,SystemResetWarning,0824.9,5.00,000.00,026.2,025.5,000.0,034.5,027.6,13.7,0004.2,0010.99,0005.01,0004.72
2024-01-22 23:37:00,SystemResetWarning,0824.9,5.00,000.00,026.2,025.5,000.0,034.5,027.6,13.7,0004.4,0010.80,0005.01,0004.72
2024-01-22 23:38:00,SystemResetWarning,0825.0,5.00,000.00,026.2,025.5,000.0,034.5,027.6,13.7,0004.5,0010.50,0005.01,0004.71
2024-01-22 23:39:00,SystemResetWarning,0825.0,5.00,000.00,026.2,025.5,000.0,034.5,027.6,13.7,0003.9,0010.26,0004.99,0004.71
2024-01-22 23:40:00,SystemResetWarning,0825.0,5.00,000.00,026.2,025.5,000.0,034.6,027.5,13.7,0003.9,0010.12,0004.97,0004.69
2024-01-22 23:41:00,SystemResetWarning,0825.0,5.01,000.00,026.2,025.5,000.0,034.5,027.6,13.7,0003.9,0010.01,0004.94,0004.67
2024-01-22 23:42:00,SystemResetWarning,0825.1,5.01,000.00,026.2,025.5,000.0,034.5,027.6,13.6,0003.9,0009.70,0004.91,0004.64
2024-01-22 23:43:00,SystemResetWarning,0825.1,5.01,000.00,026.2,025.5,000.0,034.5,027.6,13.6,0003.5,0009.69,0004.88,0004.61
2024-01-22 23:44:00,SystemResetWarning,0825.1,5.00,000.00,026.2,025.5,000.0,034.5,027.6,13.6,0002.8,0009.68,0004.87,0004.60
2024-01-22 23:45:00,SystemResetWarning,0825.1,5.00,000.00,026.2,025.5,000.0,034.6,027.6,13.6,0002.5,0009.66,0004.84,0004.57
2024-01-22 23:46:00,SystemResetWarning,0825.1,5.00,000.00,026.2,025.5,000.0,034.6,027.6,13.6,0001.7,0008.76,0004.81,0004.54
2024-01-22 23:47:00,SystemResetWarning,0825.1,5.00,000.00,026.2,025.5,000.0,034.6,027.6,13.5,0001.3,0008.54,0004.77,0004.51
2024-01-22 23:48:00,SystemResetWarning,0825.1,4.99,000.00,026.2,025.5,000.0,034.6,027.6,13.5,0001.2,0008.68,0004.74,0004.48
2024-01-22 23:49:00,SystemResetWarning,0825.1,4.99,000.00,026.2,025.5,000.0,034.6,027.6,13.5,0001.1,0008.62,0004.69,0004.45
2024-01-22 23:50:00,SystemResetWarning,0825.1,5.00,000.00,026.2,025.5,000.0,034.6,027.6,13.5,0001.3,0008.58,0004.67,0004.43
2024-01-22 23:51:00,SystemResetWarning,0825.1,5.01,000.00,026.2,025.4,000.0,034.6,027.6,13.5,0001.7,0008.63,0004.67,0004.41
2024-01-22 23:52:00,SystemResetWarning,0825.1,5.00,000.00,026.2,025.4,000.0,034.6,027.6,13.5,0002.0,0008.67,0004.66,0004.39
2024-01-22 23:53:00,SystemResetWarning,0825.1,5.01,000.00,026.2,025.4,000.0,034.6,027.6,13.5,0001.7,0008.67,0004.65,0004.36
2024-01-22 23:54:00,SystemResetWarning,0825.1,5.00,000.00,026.2,025.4,000.0,034.6,027.6,13.5,0001.8,0008.62,0004.65,0004.34
2024-01-22 23:55:00,SystemResetWarning,0825.1,4.99,000.00,026.2,025.4,000.0,034.6,027.5,13.5,0001.6,0008.59,0004.62,0004.31
2024-01-22 23:56:00,SystemResetWarning,0825.2,5.00,000.00,026.2,025.4,000.0,034.6,027.6,13.5,0000.0,0008.44,0004.59,0004.28
2024-01-22 23:57:00,SystemResetWarning,0825.2,5.00,000.00,026.2,025.4,000.0,034.6,027.6,13.5,0000.0,0008.37,0004.59,0004.27
2024-01-22 23:58:00,SystemResetWarning,0825.2,5.01,000.00,026.2,025.4,000.0,034.6,027.6,13.5,0001.2,0008.23,0004.57,0004.25
2024-01-22 23:59:00,SystemResetWarning,0825.2,5.00,000.00,026.2,025.4,000.0,034.6,027.5,13.5,0001.8,0008.67,0004.57,0004.25
